Flag for Singapore Weather past 2 weeks in Singapore, Singapore

Now
88 °F

Partly sunny.


Feels Like: 100 °F
Forecast: 77 / 88 °F
Wind: 5 mph from East

Location: Singapore / Paya Lebar

Current Time: Apr 21, 2015 at 10:44:23 AM

Latest Report: Apr 21, 2015 at 10:00 AM


Visibility: N/A

Pressure: 29.86 "Hg

Humidity: 70%

Dew point: 77 °F

Location of SingaporeLocation

Historic Weather in Singapore — Graph

°F

Singapore temperature yesterday

Maximum temperature yesterday: 93 °F (at 1:00 PM)
Minimum temperature yesterday: 81 °F (at 6:00 AM)
Average temperature yesterday: 87 °F

Past Weeks' High & Low Weather Summary

 TemperatureHumidityPressure
High95 °F (Apr 12, 2:00 PM)94% (Apr 10, 7:00 AM)29.95 "Hg (Apr 10, 7:00 AM)
Low77 °F (Apr 19, 7:00 AM)47% (Apr 14, 4:00 PM)29.68 "Hg (Apr 7, 5:00 PM)
Average86 °F71%29.82 "Hg
* Reported Apr 6 9:00 AM — Apr 21 9:00 AM, Singapore, Weather by CustomWeather, © 2015

Note: Actual official high and low records may vary slightly from our data, if they occured in-between our weather recording intervals... More about our weather records

Advertising

Singapore weather history for previous 24 hours

 ConditionsComfort  
Time TempWeatherWind HumidityBarometerVisibility
9:00 AM
Tue, Apr 21
86 °FPartly sunny.6 mph75%29.86 "HgN/A
8:00 AM82 °FPartly sunny.3 mph79%29.83 "HgN/A
7:00 AM81 °FPartly sunny.1 mph79%29.80 "Hg4 mi
6:00 AM81 °FPassing clouds.3 mph79%29.80 "HgN/A
5:00 AM81 °FPassing clouds.3 mph79%29.80 "HgN/A
11:00 PM
Mon, Apr 20
84 °FPassing clouds.2 mph74%29.83 "HgN/A
10:00 PM84 °FPassing clouds.5 mph74%29.83 "HgN/A
9:00 PM84 °FPassing clouds.3 mph74%29.80 "HgN/A
8:00 PM84 °FPassing clouds.5 mph70%29.80 "HgN/A
7:00 PM84 °FPartly sunny.5 mph70%29.77 "HgN/A
6:00 PM86 °FPartly sunny.7 mph59%29.77 "HgN/A
5:00 PM88 °FPartly sunny.9 mph55%29.77 "HgN/A
4:00 PM91 °FThundershowers. Partly sunny.8 mph59%29.77 "HgN/A
3:00 PM91 °FThundershowers. Broken clouds.7 mph59%29.77 "HgN/A
2:00 PM93 °FPartly sunny.10 mph56%29.80 "HgN/A
1:00 PM93 °FPartly sunny.9 mph56%29.83 "HgN/A
12:00 PM91 °FPartly sunny.9 mph59%29.86 "HgN/A
11:00 AM90 °FPartly sunny.6 mph67%29.86 "HgN/A
10:00 AM88 °FPartly sunny.8 mph70%29.86 "HgN/A
Weather by CustomWeather, © 2015

See weather overviewHow to use our weather pages